Chronik & Geschichte

Boeing Stearman am Flugplatz Konstanz

Mit seiner 107-jährigen Geschichte ist Konstanz der älteste Verkehrslandeplatz Deutschlands. Lesen Sie unsere Festschrift zum 100-jährigen Platzjubiläum oder entdecken Sie die ausführliche Flugplatzchronik auf der Website der Initiative PRO Flugplatz Konstanz.

Live am Platz

Die Bilder unserer Webcams werden alle 5 Minuten aktualisiert.

Sonnenaufgang:

03:31 UTC / 05:31 Lokal

Sonnenuntergang:

19:25 UTC / 21:25 Lokal

METAR (06.07.2020 10:50 UTC):

EDNY 061150Z 29005KT 230V350 9999 OVC030 19/13 Q1017
MVFR

TAF (06.07.2020 10:00 UTC):

TAF EDNY 061100Z 0612/0712 27007KT CAVOK BECMG 0618/0620 03004KT

Alle Angaben unverbindlich und ohne Gewähr. Zeiten genähert.

Für den Verkehrslandeplatz Konstanz werden keine offiziellen Wetterinformationen ausgegeben. Daher werden zur Orientierung Daten des nahegelegenen Flughafens Friedrichshafen dargestellt.